FIN9AK EFHK-LFPG

Flight info

Callsign FIN9AK
Flight time 2h 40m
Altitude 34000
Route NUNTO Y369 REKDO DCT KOSKA DCT MAKEL DCT NVO DCT KUDIN DCT RAPOR/N0433F350 DCT VEDUS
Aircraft A320/M-SDE3FGHIRWY/LB1

Departure

Time 2026-05-09 03:19
Airport Helsinki Vantaa Airport (EFHK)

Arrival

Time 2026-05-09 06:00
Airport Charles de Gaulle International Airport (LFPG)
Time Latitude Longitude Altitude Speed Heading
2026-05-09 02:50 60.31803 24.96386 167 ft 0 kts 137°
2026-05-09 03:11 60.31819 24.96357 166 ft 4 kts 139°
2026-05-09 03:12 60.31835 24.96327 166 ft 4 kts 147°
2026-05-09 03:12 60.31856 24.96319 166 ft 4 kts 210°
2026-05-09 03:12 60.31874 24.96352 166 ft 4 kts 230°
2026-05-09 03:12 60.31890 24.96389 166 ft 1 kts 227°
2026-05-09 03:13 60.31890 24.96390 166 ft 0 kts 227°
2026-05-09 03:14 60.31876 24.96363 166 ft 6 kts 224°
2026-05-09 03:15 60.31852 24.96268 166 ft 10 kts 267°
2026-05-09 03:15 60.31881 24.96111 167 ft 15 kts 319°
2026-05-09 03:15 60.31965 24.95959 171 ft 17 kts 316°
2026-05-09 03:15 60.32069 24.95768 174 ft 24 kts 318°
2026-05-09 03:16 60.32210 24.95508 174 ft 29 kts 318°
2026-05-09 03:16 60.32366 24.95230 177 ft 26 kts 321°
2026-05-09 03:16 60.32474 24.95184 179 ft 16 kts 341°
2026-05-09 03:16 60.32584 24.95116 180 ft 18 kts 343°
2026-05-09 03:17 60.32724 24.95026 178 ft 24 kts 342°
2026-05-09 03:17 60.32894 24.94905 175 ft 28 kts 329°
2026-05-09 03:17 60.33023 24.94673 181 ft 21 kts 317°
2026-05-09 03:17 60.33121 24.94491 195 ft 16 kts 312°
2026-05-09 03:18 60.33113 24.94374 190 ft 0 kts 223°
2026-05-09 03:18 60.33086 24.94325 194 ft 29 kts 223°
2026-05-09 03:18 60.32770 24.93633 181 ft 101 kts 227°
2026-05-09 03:19 60.32162 24.92291 165 ft 157 kts 227°
2026-05-09 03:19 60.31397 24.90616 676 ft 161 kts 228°
2026-05-09 03:19 60.30649 24.88921 1340 ft 163 kts 230°
2026-05-09 03:19 60.30072 24.86831 1670 ft 185 kts 249°
2026-05-09 03:20 60.29837 24.84143 2009 ft 206 kts 269°
2026-05-09 03:20 60.30085 24.81165 2412 ft 224 kts 283°
2026-05-09 03:20 60.30269 24.77912 2745 ft 245 kts 261°
2026-05-09 03:20 60.29749 24.74551 3325 ft 256 kts 245°
2026-05-09 03:21 60.29047 24.71202 4121 ft 263 kts 246°
2026-05-09 03:21 60.28340 24.67760 4948 ft 268 kts 246°
2026-05-09 03:21 60.27624 24.64252 5749 ft 274 kts 247°
2026-05-09 03:21 60.26898 24.60701 6520 ft 279 kts 247°
2026-05-09 03:22 60.26150 24.57035 7304 ft 283 kts 247°
2026-05-09 03:22 60.25396 24.53352 8116 ft 285 kts 247°
2026-05-09 03:22 60.24638 24.49652 8938 ft 287 kts 248°
2026-05-09 03:22 60.23752 24.46028 9746 ft 290 kts 242°
2026-05-09 03:23 60.22792 24.42455 10542 ft 292 kts 242°
2026-05-09 03:23 60.21798 24.38758 10857 ft 312 kts 242°
2026-05-09 03:23 60.20726 24.34775 11103 ft 331 kts 242°
2026-05-09 03:23 60.19627 24.30692 11678 ft 338 kts 242°
2026-05-09 03:24 60.18502 24.26522 12376 ft 341 kts 242°
2026-05-09 03:24 60.17380 24.22372 13085 ft 344 kts 242°
2026-05-09 03:24 60.16232 24.18141 13797 ft 346 kts 241°
2026-05-09 03:24 60.15075 24.13884 14472 ft 349 kts 241°
2026-05-09 03:25 60.13901 24.09586 15080 ft 352 kts 241°
2026-05-09 03:25 60.12721 24.05264 15667 ft 355 kts 241°
2026-05-09 03:25 60.11528 24.00907 16253 ft 358 kts 241°
2026-05-09 03:25 60.10320 23.96512 16833 ft 361 kts 241°
2026-05-09 03:26 60.09101 23.92082 17421 ft 364 kts 240°
2026-05-09 03:26 60.07876 23.87627 17997 ft 367 kts 241°
2026-05-09 03:26 60.06666 23.83098 18563 ft 370 kts 242°
2026-05-09 03:26 60.05468 23.78499 19054 ft 374 kts 242°
2026-05-09 03:27 60.04269 23.73856 19571 ft 376 kts 242°
2026-05-09 03:27 60.03064 23.69193 20102 ft 378 kts 242°
2026-05-09 03:27 60.01848 23.64522 20640 ft 380 kts 242°
2026-05-09 03:27 60.00618 23.59834 21175 ft 382 kts 241°
2026-05-09 03:28 59.99377 23.55132 21699 ft 384 kts 241°
2026-05-09 03:28 59.98126 23.50418 22235 ft 385 kts 241°
2026-05-09 03:28 59.96863 23.45680 22763 ft 387 kts 241°
2026-05-09 03:28 59.95597 23.40929 23261 ft 389 kts 241°
2026-05-09 03:29 59.94319 23.36137 23762 ft 391 kts 240°
2026-05-09 03:29 59.93038 23.31333 24206 ft 393 kts 240°
2026-05-09 03:29 59.91751 23.26513 24609 ft 395 kts 240°
2026-05-09 03:29 59.90458 23.21689 25008 ft 396 kts 240°
2026-05-09 03:30 59.89152 23.16838 25398 ft 397 kts 240°
2026-05-09 03:30 59.87841 23.11991 25758 ft 399 kts 240°
2026-05-09 03:30 59.86522 23.07116 26095 ft 401 kts 240°
2026-05-09 03:30 59.85195 23.02215 26449 ft 403 kts 240°
2026-05-09 03:31 59.83863 22.97306 26809 ft 404 kts 240°
2026-05-09 03:31 59.82525 22.92383 27192 ft 405 kts 239°
2026-05-09 03:31 59.81182 22.87451 27566 ft 406 kts 239°
2026-05-09 03:31 59.79849 22.82578 27910 ft 407 kts 239°
2026-05-09 03:32 59.78494 22.77634 28237 ft 408 kts 239°
2026-05-09 03:32 59.77135 22.72676 28573 ft 410 kts 239°
2026-05-09 03:32 59.75773 22.67714 28894 ft 411 kts 239°
2026-05-09 03:32 59.74400 22.62732 29204 ft 412 kts 239°
2026-05-09 03:33 59.73019 22.57735 29502 ft 414 kts 239°
2026-05-09 03:33 59.71631 22.52723 29799 ft 415 kts 239°
2026-05-09 03:33 59.70242 22.47721 30086 ft 416 kts 239°
2026-05-09 03:33 59.68842 22.42679 30368 ft 418 kts 239°
2026-05-09 03:34 59.67440 22.37626 30613 ft 419 kts 239°
2026-05-09 03:34 59.66510 22.34283 30760 ft 420 kts 239°
2026-05-09 03:34 59.64619 22.27516 31055 ft 421 kts 239°
2026-05-09 03:34 59.63198 22.22453 31309 ft 421 kts 239°
2026-05-09 03:35 59.61779 22.17409 31620 ft 419 kts 239°
2026-05-09 03:35 59.60359 22.12374 31935 ft 418 kts 239°
2026-05-09 03:35 59.59425 22.09064 32135 ft 417 kts 239°
2026-05-09 03:35 59.57541 22.02373 32539 ft 415 kts 239°
2026-05-09 03:36 59.56610 21.99083 32761 ft 415 kts 238°
2026-05-09 03:36 59.55202 21.94134 33078 ft 413 kts 238°
2026-05-09 03:36 59.53801 21.89212 33384 ft 412 kts 238°
2026-05-09 03:36 59.52398 21.84280 33687 ft 411 kts 238°
2026-05-09 03:37 59.50998 21.79375 33978 ft 409 kts 238°
2026-05-09 03:37 59.49607 21.74510 34210 ft 410 kts 238°
2026-05-09 03:37 59.48199 21.69598 34380 ft 410 kts 238°
2026-05-09 03:37 59.46801 21.64749 34410 ft 405 kts 238°
2026-05-09 03:38 59.44036 21.55192 34412 ft 402 kts 238°
2026-05-09 03:38 59.41277 21.45639 34410 ft 401 kts 238°
2026-05-09 03:39 59.38540 21.36193 34410 ft 401 kts 238°
2026-05-09 03:39 59.35770 21.26680 34404 ft 401 kts 238°
2026-05-09 03:40 59.32989 21.17183 34402 ft 401 kts 238°
2026-05-09 03:40 59.30203 21.07713 34395 ft 402 kts 237°
2026-05-09 03:41 59.27404 20.98240 34403 ft 402 kts 237°
2026-05-09 03:41 59.24601 20.88784 34393 ft 403 kts 237°
2026-05-09 03:42 59.21791 20.79335 34390 ft 403 kts 237°
2026-05-09 03:42 59.18962 20.69891 34389 ft 402 kts 236°
2026-05-09 03:43 59.15547 20.61355 34384 ft 399 kts 227°
2026-05-09 03:43 59.11934 20.53125 34378 ft 399 kts 227°
2026-05-09 03:44 59.08307 20.44898 34374 ft 400 kts 227°
2026-05-09 03:44 59.04669 20.36690 34373 ft 401 kts 227°
2026-05-09 03:45 59.01033 20.28489 34365 ft 401 kts 227°
2026-05-09 03:45 58.97382 20.20298 34366 ft 401 kts 227°
2026-05-09 03:46 58.93725 20.12114 34369 ft 401 kts 227°
2026-05-09 03:46 58.90072 20.03948 34379 ft 402 kts 226°
2026-05-09 03:47 58.86422 19.95832 34371 ft 403 kts 226°
2026-05-09 03:47 58.82699 19.87604 34360 ft 404 kts 226°
2026-05-09 03:48 58.79001 19.79451 34361 ft 405 kts 226°
2026-05-09 03:48 58.75283 19.71268 34358 ft 405 kts 226°
2026-05-09 03:49 58.71587 19.63152 34360 ft 406 kts 226°
2026-05-09 03:49 58.67852 19.55009 34360 ft 406 kts 226°
2026-05-09 03:50 58.64099 19.46865 34355 ft 407 kts 226°
2026-05-09 03:50 58.60335 19.38723 34353 ft 408 kts 226°
2026-05-09 03:51 58.56577 19.30577 34351 ft 408 kts 226°
2026-05-09 03:51 58.52812 19.22450 34351 ft 408 kts 226°
2026-05-09 03:52 58.49029 19.14339 34347 ft 408 kts 226°
2026-05-09 03:52 58.45242 19.06258 34347 ft 408 kts 226°
2026-05-09 03:53 58.41450 18.98164 34344 ft 409 kts 226°
2026-05-09 03:53 58.37635 18.90072 34325 ft 411 kts 227°
2026-05-09 03:54 58.33800 18.81963 34333 ft 413 kts 227°
2026-05-09 03:54 58.29939 18.73824 34324 ft 414 kts 227°
2026-05-09 03:55 58.26067 18.65697 34339 ft 415 kts 227°
2026-05-09 03:55 58.22210 18.57631 34336 ft 416 kts 227°
2026-05-09 03:56 58.18319 18.49517 34335 ft 416 kts 227°
2026-05-09 03:56 58.14414 18.41401 34335 ft 417 kts 227°
2026-05-09 03:57 58.10502 18.33307 34336 ft 417 kts 227°
2026-05-09 03:57 58.06577 18.25208 34339 ft 417 kts 227°
2026-05-09 03:58 58.02652 18.17133 34336 ft 417 kts 227°
2026-05-09 03:58 57.98718 18.09058 34334 ft 418 kts 227°
2026-05-09 03:59 57.94764 18.00987 34327 ft 419 kts 227°
2026-05-09 03:59 57.90801 17.92928 34329 ft 420 kts 227°
2026-05-09 04:00 57.86828 17.84871 34333 ft 420 kts 226°
2026-05-09 04:00 57.82853 17.76837 34336 ft 420 kts 226°
2026-05-09 04:01 57.78878 17.68814 34331 ft 420 kts 227°
2026-05-09 04:01 57.74916 17.60857 34321 ft 420 kts 227°
2026-05-09 04:02 57.70916 17.52856 34321 ft 421 kts 226°
2026-05-09 04:02 57.66899 17.44875 34324 ft 421 kts 226°
2026-05-09 04:03 57.62878 17.36909 34324 ft 421 kts 226°
2026-05-09 04:03 57.58858 17.28945 34325 ft 422 kts 226°
2026-05-09 04:04 57.54836 17.20998 34327 ft 422 kts 226°
2026-05-09 04:04 57.50833 17.13113 34325 ft 421 kts 226°
2026-05-09 04:05 57.46799 17.05199 34325 ft 421 kts 226°
2026-05-09 04:05 57.42763 16.97316 34330 ft 422 kts 227°
2026-05-09 04:06 57.38709 16.89436 34310 ft 423 kts 227°
2026-05-09 04:06 57.34644 16.81552 34312 ft 423 kts 227°
2026-05-09 04:07 57.30572 16.73673 34302 ft 424 kts 227°
2026-05-09 04:07 57.26486 16.65813 34314 ft 424 kts 227°
2026-05-09 04:08 57.22386 16.57957 34314 ft 425 kts 227°
2026-05-09 04:08 57.18278 16.50108 34316 ft 425 kts 227°
2026-05-09 04:09 57.14167 16.42273 34314 ft 425 kts 227°
2026-05-09 04:09 57.10046 16.34445 34309 ft 426 kts 227°
2026-05-09 04:10 57.05919 16.26627 34308 ft 426 kts 227°
2026-05-09 04:10 57.01782 16.18809 34318 ft 427 kts 227°
2026-05-09 04:11 56.97634 16.11017 34315 ft 427 kts 226°
2026-05-09 04:11 56.93475 16.03222 34305 ft 428 kts 227°
2026-05-09 04:12 56.89306 15.95428 34293 ft 429 kts 227°
2026-05-09 04:12 56.85118 15.87640 34311 ft 430 kts 227°
2026-05-09 04:13 56.80914 15.79831 34307 ft 431 kts 227°
2026-05-09 04:13 56.76691 15.72043 34310 ft 432 kts 226°
2026-05-09 04:14 56.72467 15.64257 34314 ft 432 kts 227°
2026-05-09 04:14 56.68241 15.56480 34312 ft 432 kts 226°
2026-05-09 04:15 56.64008 15.48731 34310 ft 432 kts 226°
2026-05-09 04:15 56.59787 15.41047 34304 ft 432 kts 226°
2026-05-09 04:16 56.55539 15.33330 34303 ft 432 kts 226°
2026-05-09 04:16 56.51293 15.25628 34299 ft 432 kts 226°
2026-05-09 04:17 56.47039 15.17941 34297 ft 432 kts 226°
2026-05-09 04:17 56.42763 15.10258 34288 ft 433 kts 226°
2026-05-09 04:18 56.38486 15.02584 34289 ft 434 kts 226°
2026-05-09 04:18 56.34208 14.94918 34299 ft 434 kts 226°
2026-05-09 04:19 56.29912 14.87267 34300 ft 434 kts 226°
2026-05-09 04:19 56.25608 14.79644 34301 ft 434 kts 226°
2026-05-09 04:20 56.22032 14.73317 34296 ft 434 kts 226°
2026-05-09 04:20 56.17723 14.65708 34288 ft 435 kts 226°
2026-05-09 04:21 56.13404 14.58105 34293 ft 435 kts 226°
2026-05-09 04:22 56.06217 14.45505 34292 ft 435 kts 226°
2026-05-09 04:22 56.02586 14.39180 34292 ft 435 kts 226°
2026-05-09 04:23 55.98277 14.31698 34281 ft 435 kts 226°
2026-05-09 04:23 55.93929 14.24164 34279 ft 435 kts 226°
2026-05-09 04:24 55.89580 14.16649 34282 ft 436 kts 226°
2026-05-09 04:24 55.85216 14.09142 34284 ft 436 kts 226°
2026-05-09 04:25 55.80839 14.01641 34281 ft 437 kts 226°
2026-05-09 04:25 55.76464 13.94154 34275 ft 437 kts 226°
2026-05-09 04:26 55.72075 13.86687 34283 ft 437 kts 226°
2026-05-09 04:26 55.67682 13.79235 34285 ft 437 kts 226°
2026-05-09 04:27 55.63291 13.71786 34277 ft 437 kts 226°
2026-05-09 04:27 55.58920 13.64402 34278 ft 437 kts 226°
2026-05-09 04:28 55.54492 13.56948 34256 ft 437 kts 226°
2026-05-09 04:28 55.50115 13.49602 34259 ft 437 kts 226°
2026-05-09 04:29 55.45706 13.42220 34251 ft 437 kts 226°
2026-05-09 04:29 55.41280 13.34848 34257 ft 438 kts 226°
2026-05-09 04:30 55.36841 13.27482 34257 ft 439 kts 226°
2026-05-09 04:30 55.32391 13.20133 34259 ft 439 kts 226°
2026-05-09 04:31 55.27933 13.12787 34265 ft 440 kts 226°
2026-05-09 04:31 55.23471 13.05448 34266 ft 440 kts 226°
2026-05-09 04:32 55.19001 12.98102 34270 ft 440 kts 226°
2026-05-09 04:32 55.14526 12.90783 34272 ft 440 kts 226°
2026-05-09 04:33 55.10042 12.83489 34261 ft 440 kts 226°
2026-05-09 04:33 55.05549 12.76201 34257 ft 441 kts 226°
2026-05-09 04:34 55.01056 12.68928 34256 ft 441 kts 226°
2026-05-09 04:34 54.96620 12.61776 34254 ft 420 kts 226°
2026-05-09 04:34 54.94512 12.58399 34269 ft 407 kts 227°
2026-05-09 04:35 54.92444 12.55081 34266 ft 402 kts 227°
2026-05-09 04:35 54.88351 12.48499 34267 ft 409 kts 227°
2026-05-09 04:36 54.84092 12.41657 34268 ft 424 kts 227°
2026-05-09 04:36 54.79668 12.34601 34265 ft 439 kts 226°
2026-05-09 04:37 54.75127 12.27405 34261 ft 444 kts 226°
2026-05-09 04:37 54.70562 12.20183 34255 ft 444 kts 226°
2026-05-09 04:38 54.65997 12.12974 34261 ft 444 kts 226°
2026-05-09 04:38 54.61426 12.05789 34259 ft 444 kts 226°
2026-05-09 04:39 54.56860 11.98621 34257 ft 444 kts 226°
2026-05-09 04:39 54.52284 11.91457 34248 ft 444 kts 226°
2026-05-09 04:40 54.47733 11.84373 34226 ft 444 kts 226°
2026-05-09 04:40 54.43157 11.77241 34216 ft 444 kts 227°
2026-05-09 04:41 54.38610 11.69978 34223 ft 443 kts 227°
2026-05-09 04:41 54.34099 11.62752 34229 ft 444 kts 227°
2026-05-09 04:42 54.29569 11.55560 34240 ft 444 kts 227°
2026-05-09 04:42 54.25033 11.48401 34239 ft 444 kts 227°
2026-05-09 04:43 54.20518 11.41300 34219 ft 444 kts 227°
2026-05-09 04:43 54.15970 11.34174 34227 ft 444 kts 227°
2026-05-09 04:44 54.11417 11.27051 34235 ft 444 kts 227°
2026-05-09 04:44 54.06856 11.19936 34235 ft 444 kts 227°
2026-05-09 04:45 54.02296 11.12835 34230 ft 445 kts 226°
2026-05-09 04:45 53.97719 11.05748 34214 ft 445 kts 227°
2026-05-09 04:46 53.93143 10.98679 34213 ft 445 kts 226°
2026-05-09 04:46 53.88562 10.91624 34232 ft 445 kts 226°
2026-05-09 04:47 53.83966 10.84582 34230 ft 445 kts 226°
2026-05-09 04:47 53.79371 10.77549 34233 ft 445 kts 226°
2026-05-09 04:48 53.74773 10.70522 34223 ft 445 kts 226°
2026-05-09 04:48 53.70165 10.63508 34228 ft 446 kts 226°
2026-05-09 04:49 53.65558 10.56516 34228 ft 446 kts 226°
2026-05-09 04:49 53.60945 10.49533 34227 ft 446 kts 226°
2026-05-09 04:50 53.56349 10.42606 34226 ft 446 kts 226°
2026-05-09 04:50 53.51723 10.35648 34190 ft 447 kts 226°
2026-05-09 04:51 53.47073 10.28693 34205 ft 448 kts 226°
2026-05-09 04:51 53.42374 10.21687 34202 ft 449 kts 226°
2026-05-09 04:52 53.37727 10.14764 34203 ft 450 kts 226°
2026-05-09 04:52 53.33045 10.07801 34210 ft 450 kts 226°
2026-05-09 04:53 53.28356 10.00850 34192 ft 451 kts 225°
2026-05-09 04:53 53.23656 9.93926 34200 ft 451 kts 225°
2026-05-09 04:54 53.18943 9.87002 34202 ft 451 kts 225°
2026-05-09 04:54 53.14223 9.80085 34193 ft 452 kts 225°
2026-05-09 04:55 53.09504 9.73189 34192 ft 452 kts 225°
2026-05-09 04:55 53.04783 9.66290 34195 ft 452 kts 225°
2026-05-09 04:56 53.00050 9.59419 34193 ft 452 kts 225°
2026-05-09 04:56 52.95305 9.52555 34183 ft 452 kts 225°
2026-05-09 04:57 52.90564 9.45710 34181 ft 452 kts 225°
2026-05-09 04:57 52.85820 9.38873 34171 ft 452 kts 225°
2026-05-09 04:58 52.81073 9.32045 34183 ft 452 kts 225°
2026-05-09 04:58 52.76313 9.25230 34174 ft 453 kts 225°
2026-05-09 04:59 52.71548 9.18437 34175 ft 453 kts 225°
2026-05-09 04:59 52.66776 9.11652 34174 ft 453 kts 225°
2026-05-09 05:00 52.62000 9.04867 34163 ft 453 kts 224°
2026-05-09 05:00 52.57219 8.98105 34151 ft 453 kts 224°
2026-05-09 05:01 52.52459 8.91398 34157 ft 453 kts 224°
2026-05-09 05:01 52.47677 8.84663 34159 ft 453 kts 224°
2026-05-09 05:02 52.42886 8.77948 34148 ft 453 kts 224°
2026-05-09 05:02 52.38090 8.71254 34151 ft 453 kts 224°
2026-05-09 05:03 52.33283 8.64564 34152 ft 453 kts 224°
2026-05-09 05:03 52.28476 8.57884 34156 ft 454 kts 224°
2026-05-09 05:04 52.23665 8.51222 34150 ft 454 kts 224°
2026-05-09 05:04 52.18842 8.44565 34145 ft 454 kts 224°
2026-05-09 05:05 52.14017 8.37917 34122 ft 455 kts 224°
2026-05-09 05:05 52.10006 8.32398 34136 ft 454 kts 224°
2026-05-09 05:06 52.05173 8.25785 34150 ft 453 kts 223°
2026-05-09 05:06 52.00342 8.19197 34148 ft 453 kts 223°
2026-05-09 05:07 51.95511 8.12625 34135 ft 453 kts 223°
2026-05-09 05:07 51.90674 8.06047 34128 ft 454 kts 223°
2026-05-09 05:08 51.85835 7.99486 34130 ft 454 kts 223°
2026-05-09 05:08 51.80989 7.92935 34129 ft 454 kts 223°
2026-05-09 05:09 51.76126 7.86396 34118 ft 455 kts 223°
2026-05-09 05:09 51.71261 7.79864 34121 ft 455 kts 223°
2026-05-09 05:10 51.66396 7.73342 34111 ft 455 kts 223°
2026-05-09 05:10 51.61527 7.66848 34128 ft 454 kts 223°
2026-05-09 05:11 51.56659 7.60381 34137 ft 453 kts 223°
2026-05-09 05:11 51.51799 7.53929 34128 ft 453 kts 223°
2026-05-09 05:12 51.46934 7.47491 34136 ft 453 kts 222°
2026-05-09 05:12 51.42067 7.41077 34136 ft 453 kts 222°
2026-05-09 05:13 51.37200 7.34681 34128 ft 453 kts 222°
2026-05-09 05:13 51.32333 7.28288 34117 ft 453 kts 222°
2026-05-09 05:14 51.27486 7.21944 34119 ft 453 kts 222°
2026-05-09 05:14 51.22602 7.15581 34119 ft 453 kts 222°
2026-05-09 05:15 51.17725 7.09235 34125 ft 452 kts 222°
2026-05-09 05:15 51.12854 7.02918 34130 ft 451 kts 222°
2026-05-09 05:16 51.07987 6.96622 34120 ft 450 kts 221°
2026-05-09 05:16 51.03122 6.90349 34130 ft 450 kts 221°
2026-05-09 05:17 50.98255 6.84095 34126 ft 450 kts 221°
2026-05-09 05:17 50.93391 6.77851 34131 ft 450 kts 221°
2026-05-09 05:18 50.88517 6.71620 34131 ft 449 kts 221°
2026-05-09 05:18 50.83649 6.65418 34129 ft 449 kts 221°
2026-05-09 05:19 50.78769 6.59242 34126 ft 449 kts 221°
2026-05-09 05:19 50.73866 6.53109 34124 ft 449 kts 220°
2026-05-09 05:20 50.68972 6.47025 34126 ft 447 kts 220°
2026-05-09 05:20 50.64091 6.40970 34128 ft 446 kts 220°
2026-05-09 05:21 50.59243 6.34964 34124 ft 446 kts 220°
2026-05-09 05:21 50.54373 6.28929 34121 ft 445 kts 220°
2026-05-09 05:22 50.49501 6.22913 34113 ft 445 kts 220°
2026-05-09 05:22 50.44625 6.16919 34105 ft 445 kts 220°
2026-05-09 05:23 50.39755 6.10948 34108 ft 445 kts 220°
2026-05-09 05:23 50.34874 6.04986 34115 ft 445 kts 220°
2026-05-09 05:24 50.29993 5.99041 34102 ft 444 kts 220°
2026-05-09 05:24 50.25123 5.93110 34118 ft 443 kts 220°
2026-05-09 05:25 50.20269 5.87222 34137 ft 441 kts 219°
2026-05-09 05:25 50.13002 5.78431 34132 ft 440 kts 219°
2026-05-09 05:26 50.08162 5.72605 34120 ft 439 kts 219°
2026-05-09 05:26 50.03353 5.66828 34114 ft 439 kts 219°
2026-05-09 05:27 49.98522 5.61033 34113 ft 438 kts 219°
2026-05-09 05:27 49.93696 5.55249 34106 ft 438 kts 219°
2026-05-09 05:28 49.88865 5.49478 34100 ft 438 kts 219°
2026-05-09 05:28 49.84032 5.43733 34073 ft 437 kts 219°
2026-05-09 05:29 49.79210 5.38012 34105 ft 436 kts 219°
2026-05-09 05:29 49.74407 5.32326 34107 ft 434 kts 219°
2026-05-09 05:30 49.69489 5.26931 34108 ft 434 kts 209°
2026-05-09 05:30 49.64081 5.22869 34088 ft 439 kts 219°
2026-05-09 05:31 49.61904 5.19505 34092 ft 438 kts 236°
2026-05-09 05:31 49.60420 5.15494 34093 ft 437 kts 249°
2026-05-09 05:31 49.59532 5.11038 34092 ft 436 kts 261°
2026-05-09 05:31 49.59290 5.06393 34095 ft 434 kts 271°
2026-05-09 05:32 49.59328 4.97065 34087 ft 435 kts 271°
2026-05-09 05:32 49.59407 4.87730 34086 ft 436 kts 271°
2026-05-09 05:33 49.59484 4.78394 34079 ft 435 kts 271°
2026-05-09 05:33 49.59542 4.69069 34076 ft 435 kts 270°
2026-05-09 05:34 49.59585 4.59748 34069 ft 435 kts 270°
2026-05-09 05:34 49.59615 4.50419 34066 ft 435 kts 270°
2026-05-09 05:35 49.59633 4.41090 34062 ft 435 kts 270°
2026-05-09 05:35 49.59651 4.31743 34060 ft 436 kts 270°
2026-05-09 05:36 49.59661 4.22399 34065 ft 436 kts 269°
2026-05-09 05:36 49.59663 4.13053 34064 ft 436 kts 270°
2026-05-09 05:37 49.59443 4.08398 34056 ft 435 kts 257°
2026-05-09 05:37 49.58468 4.04009 34058 ft 434 kts 242°
2026-05-09 05:37 49.55273 3.96203 34056 ft 434 kts 237°
2026-05-09 05:38 49.51941 3.88369 34055 ft 435 kts 237°
2026-05-09 05:38 49.48655 3.80631 34056 ft 435 kts 237°
2026-05-09 05:39 49.47288 3.76500 34051 ft 434 kts 252°
2026-05-09 05:39 49.46496 3.72022 34048 ft 434 kts 255°
2026-05-09 05:39 49.44987 3.63019 34047 ft 435 kts 255°
2026-05-09 05:40 49.43465 3.53998 34057 ft 436 kts 254°
2026-05-09 05:40 49.41888 3.44994 34053 ft 436 kts 249°
2026-05-09 05:41 49.39679 3.36325 34055 ft 436 kts 246°
2026-05-09 05:41 49.37331 3.27733 34044 ft 436 kts 246°
2026-05-09 05:42 49.34979 3.19151 34046 ft 437 kts 246°
2026-05-09 05:42 49.32660 3.10592 33899 ft 427 kts 246°
2026-05-09 05:43 49.31539 3.06439 33104 ft 418 kts 246°
2026-05-09 05:43 49.30435 3.02346 32239 ft 412 kts 246°
2026-05-09 05:43 49.29347 2.98324 31389 ft 407 kts 246°
2026-05-09 05:43 49.28267 2.94343 30572 ft 403 kts 245°
2026-05-09 05:44 49.27196 2.90401 29701 ft 399 kts 245°
2026-05-09 05:44 49.26134 2.86510 28801 ft 394 kts 245°
2026-05-09 05:44 49.25081 2.82664 27971 ft 389 kts 245°
2026-05-09 05:44 49.24042 2.78878 27230 ft 383 kts 245°
2026-05-09 05:45 49.23017 2.75158 26484 ft 377 kts 245°
2026-05-09 05:45 49.22006 2.71482 25732 ft 372 kts 246°
2026-05-09 05:45 49.21009 2.67852 24999 ft 368 kts 246°
2026-05-09 05:45 49.20025 2.64274 24287 ft 363 kts 245°
2026-05-09 05:46 49.19059 2.60770 23564 ft 359 kts 245°
2026-05-09 05:46 49.18234 2.57194 22759 ft 356 kts 258°
2026-05-09 05:46 49.18021 2.53449 22001 ft 352 kts 266°
2026-05-09 05:46 49.17936 2.49724 21259 ft 348 kts 266°
2026-05-09 05:47 49.17859 2.46051 20584 ft 343 kts 267°
2026-05-09 05:47 49.17796 2.42443 19857 ft 340 kts 267°
2026-05-09 05:47 49.17730 2.38816 18960 ft 343 kts 267°
2026-05-09 05:47 49.17659 2.35165 18048 ft 344 kts 267°
2026-05-09 05:48 49.17528 2.28752 16388 ft 344 kts 267°
2026-05-09 05:48 49.17453 2.25102 15625 ft 338 kts 267°
2026-05-09 05:48 49.17381 2.21537 14882 ft 333 kts 267°
2026-05-09 05:49 49.17312 2.18021 14157 ft 329 kts 267°
2026-05-09 05:49 49.17244 2.14555 13391 ft 324 kts 267°
2026-05-09 05:49 49.17177 2.11128 12601 ft 320 kts 267°
2026-05-09 05:49 49.17107 2.07756 11821 ft 315 kts 267°
2026-05-09 05:50 49.17036 2.04476 11158 ft 309 kts 266°
2026-05-09 05:50 49.16593 2.01298 10530 ft 299 kts 244°
2026-05-09 05:50 49.15377 1.98838 9929 ft 293 kts 220°
2026-05-09 05:50 49.13712 1.97107 9267 ft 287 kts 212°
2026-05-09 05:51 49.11891 1.95950 8613 ft 284 kts 190°
2026-05-09 05:51 49.09950 1.95754 8123 ft 275 kts 182°
2026-05-09 05:51 49.08070 1.95714 7673 ft 266 kts 182°
2026-05-09 05:51 49.06252 1.95775 7221 ft 258 kts 171°
2026-05-09 05:52 49.04646 1.96843 6773 ft 252 kts 142°
2026-05-09 05:52 49.03429 1.98721 6333 ft 246 kts 133°
2026-05-09 05:52 49.02330 2.00671 5871 ft 240 kts 132°
2026-05-09 05:52 49.01263 2.02585 5533 ft 229 kts 132°
2026-05-09 05:53 49.00341 2.04527 5408 ft 228 kts 116°
2026-05-09 05:53 48.99942 2.06864 5281 ft 231 kts 92°
2026-05-09 05:53 49.00043 2.09312 5157 ft 231 kts 86°
2026-05-09 05:53 49.00190 2.11746 5042 ft 231 kts 86°
2026-05-09 05:54 49.00332 2.14170 5008 ft 230 kts 86°
2026-05-09 05:54 49.00472 2.16601 4938 ft 231 kts 86°
2026-05-09 05:54 49.00611 2.19027 4694 ft 229 kts 86°
2026-05-09 05:54 49.00748 2.21434 4392 ft 227 kts 86°
2026-05-09 05:55 49.00883 2.23822 4091 ft 226 kts 86°
2026-05-09 05:55 49.01016 2.26160 3786 ft 221 kts 86°
2026-05-09 05:55 49.01144 2.28440 3503 ft 211 kts 86°
2026-05-09 05:55 49.01267 2.30621 3231 ft 201 kts 86°
2026-05-09 05:56 49.01381 2.32659 2997 ft 183 kts 86°
2026-05-09 05:56 49.01486 2.34519 2721 ft 171 kts 86°
2026-05-09 05:56 49.01581 2.36226 2597 ft 150 kts 86°
2026-05-09 05:56 49.01660 2.37768 2316 ft 142 kts 85°
2026-05-09 05:57 49.01747 2.39217 2130 ft 138 kts 85°
2026-05-09 05:57 49.01832 2.40698 1976 ft 139 kts 86°
2026-05-09 05:57 49.01917 2.42171 1793 ft 139 kts 85°
2026-05-09 05:57 49.01995 2.43618 1592 ft 137 kts 85°
2026-05-09 05:58 49.02072 2.45066 1376 ft 138 kts 85°
2026-05-09 05:58 49.02150 2.46529 1203 ft 139 kts 85°
2026-05-09 05:58 49.02228 2.47991 998 ft 137 kts 84°
2026-05-09 05:58 49.02301 2.49428 810 ft 135 kts 83°
2026-05-09 05:59 49.02377 2.50838 626 ft 133 kts 82°
2026-05-09 05:59 49.02459 2.52247 438 ft 132 kts 82°
2026-05-09 05:59 49.02532 2.53571 357 ft 112 kts 86°
2026-05-09 05:59 49.02584 2.54505 354 ft 69 kts 85°
2026-05-09 06:00 49.02610 2.55084 354 ft 37 kts 96°
2026-05-09 06:00 49.02532 2.55421 359 ft 32 kts 115°
2026-05-09 06:00 49.02446 2.55601 363 ft 16 kts 168°
2026-05-09 06:00 49.02342 2.55623 356 ft 15 kts 174°
2026-05-09 06:01 49.02243 2.55633 354 ft 14 kts 176°
2026-05-09 06:01 49.02151 2.55645 356 ft 12 kts 174°
2026-05-09 06:01 49.02085 2.55699 357 ft 10 kts 117°
2026-05-09 06:01 49.02083 2.55831 358 ft 16 kts 84°
2026-05-09 06:02 49.02092 2.56031 355 ft 20 kts 85°
2026-05-09 06:02 49.02093 2.56249 356 ft 20 kts 110°
2026-05-09 06:02 49.02023 2.56438 356 ft 21 kts 91°
2026-05-09 06:02 49.02038 2.56668 354 ft 23 kts 85°
2026-05-09 06:03 49.02049 2.56912 354 ft 24 kts 85°
2026-05-09 06:03 49.02062 2.57168 363 ft 25 kts 87°
2026-05-09 06:03 49.02077 2.57434 363 ft 26 kts 85°
2026-05-09 06:03 49.02090 2.57707 354 ft 26 kts 89°
2026-05-09 06:04 49.02030 2.57968 354 ft 27 kts 127°
2026-05-09 06:04 49.01879 2.58111 356 ft 27 kts 167°
2026-05-09 06:04 49.01692 2.58142 356 ft 28 kts 175°
2026-05-09 06:04 49.01545 2.58149 354 ft 17 kts 191°
2026-05-09 06:05 49.01476 2.58033 355 ft 15 kts 200°
2026-05-09 06:05 49.01374 2.58044 354 ft 15 kts 175°
2026-05-09 06:05 49.01264 2.58056 354 ft 17 kts 176°
2026-05-09 06:05 49.01144 2.58071 354 ft 18 kts 175°
2026-05-09 06:06 49.01016 2.58086 354 ft 19 kts 176°
2026-05-09 06:06 49.00904 2.58010 356 ft 20 kts 253°
2026-05-09 06:06 49.00893 2.57797 358 ft 21 kts 268°
2026-05-09 06:06 49.00878 2.57571 358 ft 22 kts 264°
2026-05-09 06:07 49.00866 2.57332 362 ft 23 kts 265°
2026-05-09 06:07 49.00852 2.57079 363 ft 24 kts 265°
2026-05-09 06:07 49.00839 2.56817 359 ft 26 kts 265°
2026-05-09 06:07 49.00826 2.56558 354 ft 23 kts 267°
2026-05-09 06:08 49.00753 2.56455 354 ft 16 kts 178°
2026-05-09 06:08 49.00642 2.56456 362 ft 14 kts 200°
2026-05-09 06:08 49.00619 2.56315 354 ft 15 kts 265°
2026-05-09 06:08 49.00598 2.56176 359 ft 11 kts 213°
2026-05-09 06:09 49.00537 2.56182 356 ft 5 kts 174°
2026-05-09 06:09 49.00526 2.56184 354 ft 0 kts 175°